Preview of NWS' New Version of Forecast
This preview is not operational and should not be used for support decisions.

Regional Weather Roundup (RWR)

Issued by National Weather Service (NWS)

                            
000
ASUS43 KDMX 192101
RWRIA 

WEATHER ROUNDUP FOR IOWA
NATIONAL WEATHER SERVICE DES MOINES IA
300 PM CST TUE FEB 19 2019

NOTE: "FAIR" INDICATES FEW OR NO CLOUDS BELOW 12,000 FEET WITH NO
SIGNIFICANT WEATHER AND/OR OBSTRUCTIONS TO VISIBILITY.

* - THESE STATIONS ARE NOT NWS STATIONS...THUS NOT UNDER NWS
QUALITY CONTROL.  THEY ALSO DO NOT REPORT WEATHER SUCH 
AS PRECIPITATION OR FOG.  

IAZ001>003-012>014-020>022-031>034-043>046-192200-
   NORTHWEST IOWA
  
CITY           SKY/WX    TMP DP  RH WIND       PRES   REMARKS
CARROLL *      CLOUDY    14  14 100 E9        30.35F WCI   2          
CHEROKEE *     CLOUDY    17   8  67 E9        30.34F WCI   5          
DENISON *      CLOUDY    14  10  85 E9        30.33F WCI   2          
LE MARS *      CLOUDY    18   9  68 E8        30.32F WCI   7          
ORANGE CITY *  MOSUNNY   18  12  79 E8        30.31F WCI   7          
SHELDON *      PTSUNNY   14  12  92 E8        30.31F WCI   3          
SIOUX CITY     CLOUDY    18   8  65 E10       30.32F WCI   6          
SPENCER        PTSUNNY   16   7  67 E5        30.35F WCI   9          
STORM LAKE *   CLOUDY    12  12 100 SE13      30.32F WCI  -3          
$$
 
IAZ055>058-069>071-079>083-090>094-192200-
   SOUTHWEST IOWA
  
CITY           SKY/WX    TMP DP  RH WIND       PRES   REMARKS
ATLANTIC *     CLOUDY    19  16  86 NE10      30.30F WCI   8          
AUDUBON *      CLOUDY    18  10  73 CALM      30.33F                  
CLARINDA *     CLOUDY    25  18  74 E8        30.31F WCI  16          
COUNCIL BLFS * CLOUDY    19  18  93 E10       30.28F WCI   8          
CRESTON *      CLOUDY    23  16  74 E17       30.29F WCI   9          
HARLAN  *      CLOUDY    18  14  86 E10       30.30F WCI   6          
LAMONI         CLOUDY    25  17  72 E9G18     30.29F WCI  15          
RED OAK *      CLOUDY    23  18  80 E14       30.29F WCI  11          
SHENANDOAH *   CLOUDY    25  18  74 E12       30.30F WCI  14          
$$
 
IAZ047>049-059>061-072>074-084-192200-
   CENTRAL IOWA
  
CITY           SKY/WX    TMP DP  RH WIND       PRES   REMARKS
AMES           CLOUDY    16  10  77 E9        30.38F WCI   4          
ANKENY *       CLOUDY    18  12  79 NE12      30.39F WCI   5          
BOONE *        CLOUDY    16  16 100 E8        30.36F WCI   5          
CHARITON *     CLOUDY    23  16  74 E10       30.33F WCI  12          
DES MOINES     CLOUDY    19  11  70 E9        30.37F WCI   8          
GRINNELL*      CLOUDY    17  13  82 E12       30.41F WCI   5          
KNOXVILLE *    CLOUDY    19  19 100 E9        30.36F WCI   9          
MARSHALLTOWN   CLOUDY    14  11  87 E10       30.40F WCI   1          
NEWTON *       CLOUDY    18  14  86 E9        30.38F WCI   6          
PELLA *        CLOUDY    21  12  68 E6        30.39F WCI  14          
PERRY *        FAIR      16  11  80 CALM      30.36F                  
$$
 
IAZ004>006-015-016-023>025-035-036-192200-
   NORTH CENTRAL IOWA
  
CITY           SKY/WX    TMP DP  RH WIND       PRES   REMARKS
ALGONA *       SUNNY     16  10  79 E7        30.36F WCI   6          
CLARION *      CLOUDY    16  12  86 E13       30.38F WCI   2          
ESTHERVILLE    SUNNY     11   6  81 SE6       30.37F WCI   1          
FORT DODGE *   CLOUDY    18  11  74 E9        30.37F WCI   7          
MASON CITY     SUNNY     15   8  73 E8        30.40F WCI   4          
FOREST CITY *  FAIR      19  10  68 E7        30.38F WCI  10          
IOWA FALLS *   FAIR      18  12  77 E8        30.39F WCI   8          
$$

IAZ007>011-017>019-026>030-037>042-050>054-066-192200-
   NORTHEAST IOWA
  
CITY           SKY/WX    TMP DP  RH WIND       PRES   REMARKS
CEDAR RAPIDS   FAIR      20  13  74 E10       30.42F WCI   9          
CHARLES CITY * FAIR      18  10  73 SE7       30.41F WCI   8          
CLINTON *      FAIR      33  18  53 CALM      30.47F                  
DECORAH *      FAIR      19  10  68 VRB3      30.41F                  
DUBUQUE        FAIR      20  12  71 S8        30.44F WCI  10          
OELWEIN *      FAIR      18  12  79 SE8       30.43F WCI   7          
WATERLOO       FAIR      18  10  71 E9        30.43F WCI   7          
$$
 
IAZ064-065-067-068-078-192200-
   EAST CENTRAL IOWA
  
CITY           SKY/WX    TMP DP  RH WIND       PRES   REMARKS
DAVENPORT      FAIR      24  15  68 MISG      30.46F                  
IOWA CITY      PTSUNNY   24  14  65 E7        30.46F WCI  16          
MT. PLEASANT * CLOUDY    30  23  74 E9        30.41F WCI  22          
MUSCATINE *    PTSUNNY   27  18  69 NE10      30.45F WCI  17          
QUAD CITIES    FAIR      28  18  66 E8        30.45F WCI  20          
$$
 
IAZ062-063-075>077-085>089-095>099-192200-
   SOUTHEAST IOWA
  
CITY           SKY/WX    TMP DP  RH WIND       PRES   REMARKS
BURLINGTON     CLOUDY    29  19  66 E12       30.41F WCI  19          
FAIRFIELD *    CLOUDY    25  18  74 E10       30.39F WCI  15          
KEOKUK *       PTSUNNY   30  23  74 E13       30.39F WCI  20          
OSKALOOSA *    PTSUNNY   22  15  74 E12       30.39F WCI  11          
OTTUMWA        CLOUDY    22  15  75 NE13      30.37F WCI  10          
WASHINGTON *   CLOUDY    23  18  80 NE12      30.42F WCI  12          
$$

ABBREVIATIONS USED IN REMARKS
   TC - TEMPERATURES IN CELSIUS
  WCI - WIND CHILL INDEX
   HX - HEAT INDEX
  VSB - VISIBILITY  
$$